When you browse on this site, cookies collect data to enhance your experience and personalize the content and advertising you see.
Visit our Privacy Policy to learn more. By continuing to use the site, you agree to this use of cookies and data.
  • In Latvia
  • List of Countries
  • For 7 days
  • Water Temperature
  • Satellite Maps
  • Weather Map
  • Weather Widgets
  • user-avatar
    Login

    Hourly Weather Providence

    Today, 24 July, Wednesday

    Time Temperature Precipitation Wind Pressure Humidity
    00:00 +20°C° 0.1 mm 1 mps 758 mmHg 89%
    01:00 +20°C° 0.1 mm 1 mps 758 mmHg 91%
    02:00 +19°C° 0.3 mm 1 mps 758 mmHg 91%
    03:00 +19°C° 0.3 mm 1 mps 758 mmHg 92%
    04:00 +19°C° 0.3 mm 1 mps 757 mmHg 92%
    05:00 +20°C° 0.1 mm 1 mps 758 mmHg 90%
    06:00 +20°C° 0.1 mm 1 mps 758 mmHg 88%
    07:00 +20°C° 0.1 mm 2 mps 758 mmHg 85%
    08:00 +23°C° 0 mm 2 mps 759 mmHg 75%
    09:00 +24°C° 0 mm 2 mps 759 mmHg 65%
    10:00 +26°C° 0 mm 2 mps 759 mmHg 55%
    11:00 +27°C° 0 mm 2 mps 759 mmHg 52%
    12:00 +28°C° 0 mm 2 mps 759 mmHg 48%
    13:00 +29°C° 0 mm 2 mps 759 mmHg 45%
    14:00 +29°C° 0 mm 2 mps 759 mmHg 47%
    15:00 +28°C° 0 mm 2 mps 759 mmHg 48%
    16:00 +28°C° 0 mm 1 mps 758 mmHg 50%
    17:00 +26°C° 0 mm 1 mps 759 mmHg 59%
    18:00 +24°C° 0 mm 1 mps 759 mmHg 68%
    19:00 +22°C° 0 mm 1 mps 760 mmHg 78%
    20:00 +21°C° 0 mm 1 mps 760 mmHg 81%
    21:00 +20°C° 0 mm 1 mps 760 mmHg 84%
    22:00 +19°C° 0 mm 1 mps 760 mmHg 88%
    23:00 +19°C° 0 mm 1 mps 761 mmHg 89%

    Tomorrow, 25 July, Thursday

    Time Temperature Precipitation Wind Pressure Humidity
    00:00 +19°C° 0 mm 1 mps 761 mmHg 90%
    01:00 +19°C° 0 mm 1 mps 761 mmHg 91%
    02:00 +18°C° 0 mm 1 mps 761 mmHg 91%
    03:00 +18°C° 0 mm 1 mps 761 mmHg 91%
    04:00 +18°C° 0 mm 1 mps 761 mmHg 91%
    05:00 +20°C° 0 mm 1 mps 762 mmHg 84%
    06:00 +21°C° 0 mm 1 mps 762 mmHg 77%
    07:00 +21°C° 0 mm 0 mps 763 mmHg 70%
    08:00 +23°C° 0 mm 0 mps 763 mmHg 63%
    09:00 +26°C° 0 mm 0 mps 763 mmHg 55%
    10:00 +28°C° 0 mm 0 mps 763 mmHg 47%
    11:00 +29°C° 0 mm 0 mps 763 mmHg 44%
    12:00 +31°C° 0 mm 1 mps 763 mmHg 42%
    13:00 +32°C° 0 mm 1 mps 763 mmHg 39%
    14:00 +30°C° 0 mm 1 mps 763 mmHg 46%
    15:00 +29°C° 0 mm 2 mps 763 mmHg 53%
    16:00 +27°C° 0 mm 2 mps 763 mmHg 60%
    17:00 +26°C° 0 mm 2 mps 763 mmHg 67%
    18:00 +24°C° 0 mm 2 mps 763 mmHg 75%
    19:00 +23°C° 0 mm 2 mps 764 mmHg 82%
    20:00 +21°C° 0 mm 2 mps 764 mmHg 85%
    21:00 +21°C° 0 mm 2 mps 764 mmHg 88%
    22:00 +20°C° 0 mm 2 mps 765 mmHg 92%
    23:00 +20°C° 0 mm 2 mps 765 mmHg 92%

    Day after tomorrow, 26 July, Friday

    Time Temperature Precipitation Wind Pressure Humidity
    00:00 +19°C° 0 mm 2 mps 765 mmHg 92%
    01:00 +19°C° 0 mm 2 mps 765 mmHg 93%
    02:00 +19°C° 0 mm 2 mps 765 mmHg 92%
    03:00 +20°C° 0 mm 1 mps 765 mmHg 91%
    04:00 +19°C° 0 mm 1 mps 765 mmHg 90%
    05:00 +21°C° 0 mm 1 mps 766 mmHg 83%
    06:00 +23°C° 0 mm 1 mps 766 mmHg 75%
    07:00 +22°C° 0 mm 0 mps 767 mmHg 68%
    08:00 +25°C° 0 mm 0 mps 767 mmHg 60%
    09:00 +27°C° 0 mm 0 mps 767 mmHg 52%
    10:00 +30°C° 0 mm 0 mps 767 mmHg 45%
    11:00 +32°C° 0 mm 1 mps 767 mmHg 43%
    12:00 +32°C° 0 mm 2 mps 767 mmHg 41%
    13:00 +32°C° 0 mm 2 mps 767 mmHg 39%
    14:00 +33°C° 0 mm 3 mps 767 mmHg 43%
    15:00 +31°C° 0 mm 3 mps 766 mmHg 47%
    16:00 +30°C° 0 mm 3 mps 766 mmHg 51%
    17:00 +28°C° 0 mm 3 mps 766 mmHg 60%
    18:00 +27°C° 0 mm 3 mps 767 mmHg 69%
    19:00 +25°C° 0 mm 3 mps 767 mmHg 77%
    20:00 +24°C° 0 mm 3 mps 767 mmHg 81%
    21:00 +23°C° 0 mm 2 mps 767 mmHg 85%
    22:00 +21°C° 0 mm 2 mps 768 mmHg 89%
    23:00 +20°C° 0 mm 2 mps 768 mmHg 89%

    27 July, Saturday

    Time Temperature Precipitation Wind Pressure Humidity
    00:00 +20°C° 0 mm 2 mps 767 mmHg 90%
    01:00 +21°C° 0 mm 1 mps 767 mmHg 90%
    02:00 +21°C° 0 mm 1 mps 767 mmHg 91%
    03:00 +20°C° 0 mm 1 mps 767 mmHg 92%
    04:00 +20°C° 0 mm 1 mps 767 mmHg 92%
    05:00 +22°C° 0 mm 1 mps 768 mmHg 87%
    06:00 +23°C° 0 mm 1 mps 768 mmHg 81%
    07:00 +24°C° 0 mm 1 mps 768 mmHg 76%
    08:00 +26°C° 0 mm 2 mps 768 mmHg 68%
    09:00 +28°C° 0 mm 2 mps 768 mmHg 60%
    10:00 +30°C° 0 mm 2 mps 768 mmHg 52%
    11:00 +30°C° 0 mm 2 mps 767 mmHg 53%
    12:00 +30°C° 0 mm 3 mps 767 mmHg 53%
    13:00 +30°C° 0 mm 3 mps 767 mmHg 53%
    14:00 +30°C° 0 mm 3 mps 767 mmHg 54%
    15:00 +29°C° 0 mm 4 mps 766 mmHg 55%
    16:00 +29°C° 0 mm 4 mps 766 mmHg 56%
    17:00 +27°C° 0 mm 3 mps 766 mmHg 63%
    18:00 +25°C° 0 mm 3 mps 766 mmHg 69%
    19:00 +22°C° 0 mm 3 mps 766 mmHg 76%
    20:00 +23°C° 0 mm 2 mps 766 mmHg 78%
    21:00 +21°C° 0 mm 2 mps 766 mmHg 81%
    22:00 +20°C° 0 mm 2 mps 766 mmHg 84%
    23:00 +20°C° 0 mm 2 mps 766 mmHg 84%

    28 July, Sunday

    Time Temperature Precipitation Wind Pressure Humidity
    00:00 +20°C° 0 mm 2 mps 766 mmHg 84%
    01:00 +20°C° 0 mm 2 mps 766 mmHg 84%
    02:00 +20°C° 0 mm 2 mps 766 mmHg 86%
    03:00 +20°C° 0 mm 2 mps 766 mmHg 88%
    04:00 +20°C° 0 mm 1 mps 765 mmHg 90%
    05:00 +21°C° 0 mm 2 mps 766 mmHg 86%
    06:00 +23°C° 0 mm 2 mps 766 mmHg 81%
    07:00 +25°C° 0 mm 2 mps 766 mmHg 77%
    08:00 +27°C° 0 mm 2 mps 765 mmHg 71%
    09:00 +28°C° 0 mm 2 mps 765 mmHg 65%
    10:00 +30°C° 0 mm 3 mps 765 mmHg 59%
    11:00 +31°C° 0.1 mm 3 mps 765 mmHg 56%
    12:00 +33°C° 0.1 mm 3 mps 765 mmHg 52%
    13:00 +33°C° 0.1 mm 4 mps 764 mmHg 49%
    14:00 +32°C° 0.1 mm 4 mps 764 mmHg 54%
    15:00 +30°C° 0.1 mm 4 mps 764 mmHg 60%
    16:00 +29°C° 0.1 mm 4 mps 763 mmHg 65%
    17:00 +28°C° 0 mm 4 mps 763 mmHg 71%
    18:00 +27°C° 0 mm 3 mps 763 mmHg 76%
    19:00 +25°C° 0 mm 3 mps 763 mmHg 82%
    20:00 +25°C° 0 mm 3 mps 763 mmHg 83%
    21:00 +24°C° 0 mm 3 mps 763 mmHg 84%
    22:00 +24°C° 0 mm 3 mps 763 mmHg 85%
    23:00 +22°C° 0 mm 3 mps 763 mmHg 87%

    29 July, Monday

    Time Temperature Precipitation Wind Pressure Humidity
    00:00 +22°C° 0 mm 3 mps 763 mmHg 88%
    01:00 +22°C° 0 mm 3 mps 763 mmHg 89%
    02:00 +23°C° 0 mm 2 mps 763 mmHg 91%
    03:00 +23°C° 0 mm 2 mps 763 mmHg 92%
    04:00 +21°C° 0 mm 2 mps 762 mmHg 94%
    05:00 +24°C° 0 mm 2 mps 762 mmHg 87%
    06:00 +25°C° 0 mm 2 mps 762 mmHg 81%
    07:00 +26°C° 0 mm 2 mps 762 mmHg 74%
    08:00 +28°C° 0 mm 3 mps 762 mmHg 65%
    09:00 +30°C° 0 mm 3 mps 762 mmHg 55%
    10:00 +33°C° 0 mm 3 mps 762 mmHg 46%
    11:00 +34°C° 0 mm 4 mps 762 mmHg 44%
    12:00 +35°C° 0 mm 4 mps 762 mmHg 41%
    13:00 +35°C° 0 mm 4 mps 761 mmHg 39%
    14:00 +34°C° 0 mm 4 mps 761 mmHg 43%
    15:00 +34°C° 0 mm 4 mps 761 mmHg 46%
    16:00 +33°C° 0 mm 5 mps 760 mmHg 50%
    17:00 +30°C° 0 mm 4 mps 761 mmHg 57%
    18:00 +28°C° 0 mm 4 mps 761 mmHg 63%
    19:00 +27°C° 0 mm 4 mps 761 mmHg 70%
    20:00 +26°C° 0 mm 3 mps 761 mmHg 71%
    21:00 +26°C° 0 mm 3 mps 761 mmHg 72%
    22:00 +25°C° 0 mm 3 mps 762 mmHg 73%
    23:00 +25°C° 0 mm 3 mps 761 mmHg 75%
    Show more